EW5391 Weather Reports


time (UTC)temp
C
wind
direction
speed
KPH
gust
KPH
rain 1hr
cm
rain 24hr
cm
rain mn
cm
humidity
%
barometer
mb
20260505041517 16 180 1.6 6.4 0.00 0.00 0.00 86 1010.4
20260505040517 17 158 3.2 8.0 0.00 0.00 0.00 86 1010.3
20260505035518 17 158 3.2 8.0 0.00 0.00 0.00 86 1010.2
20260505034616 17 158 1.6 8.0 0.00 0.00 0.00 85 1010.2
20260505033516 17 180 4.8 8.0 0.00 0.00 0.00 84 1010.2
20260505032516 17 225 4.8 9.7 0.00 0.00 0.00 83 1010.1
20260505031516 17 180 3.2 8.0 0.00 0.00 0.00 82 1010.3
20260505030516 17 180 4.8 9.7 0.00 0.00 0.00 81 1010.3
20260505025516 17 203 1.6 6.4 0.00 0.00 0.00 80 1010.3
20260505024516 18 158 3.2 8.0 0.00 0.00 0.00 79 1010.2
20260505023515 18 158 1.6 3.2 0.00 0.00 0.00 77 1010.3
20260505022536 18 180 4.8 8.0 0.00 0.00 0.00 75 1010.2
20260505021516 18 203 1.6 8.0 0.00 0.00 0.00 72 1010.3
20260505020516 18 203 6.4 12.9 0.00 0.00 0.00 71 1010.2
20260505015515 18 225 3.2 12.9 0.00 0.00 0.00 72 1010.1
20260505014516 18 180 1.6 3.2 0.00 0.00 0.00 72 1010.3
20260505013516 18 225 1.6 3.2 0.00 0.00 0.00 71 1010.2
20260505012515 18 180 3.2 8.0 0.00 0.00 0.00 71 1010.1
20260505011516 18 0.0 3.2 0.00 0.00 0.00 69 1009.9
20260505010515 19 203 1.6 4.8 0.00 0.00 0.00 67 1009.8
20260505005518 18 203 1.6 4.8 0.00 0.00 0.00 67 1009.6
20260505004515 18 180 1.6 3.2 0.00 0.00 0.00 68 1009.7
20260505003516 18 203 1.6 6.4 0.00 0.00 0.00 70 1009.7
20260505002515 18 0.0 1.6 0.00 0.00 0.00 72 1009.6
20260505001515 18 0.0 3.2 0.00 0.00 0.00 71 1009.6
20260505000555 19 180 3.2 4.8 0.00 0.00 0.00 68 1009.6
20260504235515 20 203 4.8 11.3 0.00 0.00 0.00 63 1009.7
20260504234515 20 0.0 1.6 0.00 0.00 0.00 58 1009.6
20260504233515 21 158 3.2 6.4 0.00 0.00 0.00 54 1009.5
20260504232515 21 203 4.8 11.3 0.00 0.00 0.00 52 1009.4
20260504231515 21 180 4.8 9.7 0.00 0.00 0.00 52 1009.5
20260504230515 21 113 6.4 12.9 0.00 0.00 0.00 52 1009.4
20260504225515 21 135 4.8 9.7 0.00 0.00 0.00 52 1009.4
20260504224535 21 203 4.8 9.7 0.00 0.00 0.00 52 1009.5
20260504223515 22 180 8.0 20.9 0.00 0.00 0.00 52 1009.5
20260504222515 22 180 1.6 4.8 0.00 0.00 0.00 52 1009.5
20260504221515 22 135 8.0 14.5 0.00 0.00 0.00 48 1009.4
20260504220515 22 180 3.2 9.7 0.00 0.00 0.00 48 1009.4
20260504215515 22 225 3.2 6.4 0.00 0.00 0.00 48 1009.5
20260504214535 22 180 3.2 8.0 0.00 0.00 0.00 47 1009.5
20260504213535 22 135 4.8 8.0 0.00 0.00 0.00 48 1009.5
20260504212515 22 158 4.8 11.3 0.00 0.00 0.00 47 1009.6
20260504211515 22 113 4.8 11.3 0.00 0.00 0.00 48 1009.6
20260504210515 22 135 4.8 9.7 0.00 0.00 0.00 47 1009.6
20260504205515 22 158 11.3 14.5 0.00 0.00 0.00 45 1009.8
20260504204535 22 158 6.4 12.9 0.00 0.00 0.00 45 1009.7
20260504203515 22 135 11.3 17.7 0.00 0.00 0.00 45 1009.8
20260504202515 22 158 6.4 12.9 0.00 0.00 0.00 44 1009.9
20260504201515 22 158 1.6 4.8 0.00 0.00 0.00 45 1010.0
20260504200515 22 135 11.3 19.3 0.00 0.00 0.00 43 1010.1
20260504195515 22 45 4.8 12.9 0.00 0.00 0.00 42 1010.4
20260504194536 22 135 3.2 8.0 0.00 0.00 0.00 41 1010.4
20260504193515 22 135 6.4 9.7 0.00 0.00 0.00 42 1010.6
20260504192515 22 135 11.3 24.1 0.00 0.00 0.00 42 1010.7
20260504191517 21 180 6.4 11.3 0.00 0.00 0.00 44 1010.9
20260504190517 21 135 8.0 12.9 0.00 0.00 0.00 42 1011.1
20260504185517 21 135 4.8 11.3 0.00 0.00 0.00 44 1011.2
20260504184517 21 135 11.3 17.7 0.00 0.00 0.00 43 1011.3
20260504183537 21 135 14.5 17.7 0.00 0.00 0.00 43 1011.5
20260504182517 21 180 6.4 14.5 0.00 0.00 0.00 42 1011.6
20260504181537 21 158 3.2 8.0 0.00 0.00 0.00 43 1011.7
20260504180517 21 158 11.3 19.3 0.00 0.00 0.00 42 1011.8
20260504175517 21 158 6.4 27.4 0.00 0.00 0.00 41 1011.9
20260504174557 21 135 9.7 16.1 0.00 0.00 0.00 44 1012.1
20260504173517 21 158 4.8 14.5 0.00 0.00 0.00 44 1012.2
20260504172516 21 158 9.7 12.9 0.00 0.00 0.00 43 1012.3
20260504171517 20 158 8.0 12.9 0.00 0.00 0.00 45 1012.4
20260504170516 20 158 4.8 9.7 0.00 0.00 0.00 44 1012.6
20260504150517 18 158 9.7 14.5 0.00 0.00 0.00 53 1013.7
20260504140516 17 248 6.4 14.5 0.00 0.00 0.00 51 1014.0
20260504130516 16 203 1.6 3.2 0.00 0.00 0.00 55 1014.1
20260504110516 13 225 1.6 1.6 0.00 0.00 0.00 64 1014.7
20260504100516 13 203 4.8 8.0 0.00 0.00 0.00 64 1014.7
20260504081515 12 0.0 0.0 0.00 0.00 0.00 67 1015.0
20260504080516 12 0.0 0.0 0.00 0.00 0.00 66 1015.0
20260504050515 11 0.0 3.2 0.00 0.00 0.00 62 1015.2
20260504045515 11 0.0 0.0 0.00 0.00 0.00 62 1015.2
20260504044518 11 0.0 3.2 0.00 0.00 0.00 61 1015.3
20260504043515 11 203 1.6 3.2 0.00 0.00 0.00 60 1015.2
20260504042515 10 225 1.6 4.8 0.00 0.00 0.00 62 1015.3